Dewpoint
66 66 65 59 56 58 58 60 61 61 62 63 63 64 65 66 67 68 68 69 69 69 70 70 69 70 70 71 71 72 72 71 72 71 72 72 72 72 73 73 73 73 73 73 73 74 74 75 75 76 76 76 76 76 76 76 76 76 76 77 77 77 75
65 66 67 63 56 57 59 60 61 61 62 63 63 64 65 66 67 68 68 69 69 69 69 69 70 70 70 70 71 72 72 72 72 73 72 72 73 73 73 73 73 73 73 73 73 74 75 75 75 75 76 76 76 76 76 76 76 76 76 77 77 76 76
66 66 67 67 60 57 58 60 61 61 62 63 63 63 64 66 67 68 68 69 69 69 69 69 70 69 70 70 71 71 72 72 72 72 71 71 72 71 72 73 73 73 73 73 73 74 75 74 75 76 75 75 75 76 76 76 76 76 76 77 77 76 76
66 66 67 68 68 65 61 60 61 62 62 63 63 63 64 66 67 67 68 69 68 69 69 69 69 69 70 70 70 71 71 72 72 72 72 72 72 72 73 73 73 73 73 73 73 73 73 75 75 75 76 76 75 75 75 76 75 76 76 77 77 76 76
66 66 67 68 68 67 65 61 61 61 62 63 64 65 65 65 67 67 68 68 68 68 68 69 69 69 70 70 70 70 71 71 72 73 73 72 73 73 73 72 73 73 72 72 74 74 74 74 74 75 75 76 75 75 75 75 75 76 76 77 76 76 76
66 66 67 68 68 68 67 66 63 62 62 63 65 65 64 65 67 67 68 69 69 69 70 70 69 70 70 70 70 70 71 71 72 73 73 73 72 72 72 73 73 73 72 73 74 74 74 74 74 74 74 74 74 74 75 75 75 76 76 76 76 76 76
66 66 67 68 68 68 69 70 70 69 67 66 66 66 65 66 67 67 68 68 70 69 69 69 69 70 70 71 71 71 71 71 71 71 73 73 72 72 72 73 74 73 73 73 73 74 74 74 74 74 74 74 74 74 75 75 75 76 76 76 76 76 76
65 66 68 69 70 70 70 70 70 71 71 71 69 69 66 66 67 68 69 69 70 70 70 71 70 70 71 71 71 70 71 71 71 71 72 72 72 72 72 72 73 74 74 73 73 74 73 74 74 74 74 74 74 75 74 75 76 75 75 75 75 75 75
66 67 69 69 69 69 70 71 70 70 71 70 70 70 70 69 68 69 70 71 71 70 70 71 71 71 72 72 71 71 71 71 71 72 72 72 72 72 72 72 72 73 73 73 73 74 74 73 73 74 74 74 74 74 74 75 75 75 75 75 75 75 75
65 66 68 68 69 69 70 70 71 70 70 70 70 70 70 70 70 71 71 71 71 71 72 72 73 73 72 72 72 72 72 72 72 71 71 71 71 71 71 72 72 73 72 72 72 73 74 74 73 73 73 74 74 74 74 74 75 75 75 75 75 75 75
65 66 67 67 68 68 69 69 69 69 69 69 70 70 70 70 71 70 70 70 71 72 73 73 73 73 73 73 73 73 72 71 72 71 71 71 71 71 71 71 71 72 72 72 71 72 72 73 73 73 73 72 73 74 74 74 74 74 74 75 75 75 75
64 64 64 66 67 68 68 68 68 68 69 69 70 70 70 70 70 71 71 71 72 73 73 74 74 73 73 73 73 72 72 72 72 71 71 71 71 71 71 71 71 70 71 71 71 71 71 71 71 72 72 72 73 73 74 74 74 74 74 74 74 74 74
62 63 63 63 64 65 66 67 67 68 68 69 69 69 70 70 70 71 71 71 72 72 73 73 73 72 73 73 73 72 72 72 72 72 72 72 72 71 71 71 71 70 70 71 71 70 70 70 71 72 72 72 72 72 73 73 73 74 74 74 74 74 74
62 62 62 63 63 64 65 66 67 67 68 69 68 69 69 70 71 71 71 71 71 72 73 72 72 72 72 72 71 71 72 72 73 73 73 72 72 72 71 71 71 71 71 71 70 70 70 69 69 70 71 71 71 72 72 73 73 73 73 73 73 73 73
59 60 61 62 62 63 64 64 65 65 67 68 68 69 69 70 70 70 70 70 70 71 71 72 71 70 71 71 71 71 71 71 72 72 72 71 70 71 71 71 72 72 71 71 70 69 69 69 69 69 70 70 71 71 71 71 71 72 72 72 72 72 72
59 59 59 60 61 62 63 63 64 65 65 66 68 68 69 69 69 69 68 68 69 70 71 71 71 71 70 70 70 70 71 71 72 71 71 71 70 70 71 71 72 71 72 72 71 70 71 71 70 69 69 69 70 70 70 71 71 72 69 70 72 72 71
58 59 58 59 60 61 62 63 63 64 64 65 66 66 66 67 67 67 67 67 68 68 69 70 69 70 69 69 70 70 70 71 71 71 70 70 70 70 70 71 72 72 72 71 71 72 72 71 70 68 68 68 68 68 68 69 69 68 65 65 67 71 72
59 60 60 59 59 60 61 62 63 63 64 64 64 65 65 65 64 64 65 66 67 68 68 68 67 68 68 69 69 70 71 72 71 71 71 71 71 71 71 71 71 71 73 71 70 71 70 71 71 71 70 69 67 67 67 68 68 64 64 64 64 67 71
57 59 59 60 59 60 60 62 62 61 62 62 63 63 63 63 63 63 63 64 65 66 66 66 67 67 67 68 68 69 70 70 71 71 71 71 71 71 71 71 71 71 72 72 72 72 71 71 71 71 71 70 70 69 68 67 66 63 62 62 62 63 67
56 58 59 58 59 59 60 61 60 59 61 61 61 61 61 61 60 61 61 62 62 63 63 63 64 65 65 66 67 68 68 69 69 70 70 71 71 71 71 71 71 71 72 72 72 71 71 71 71 70 71 71 71 71 70 70 68 63 62 60 60 61 63
55 55 54 55 55 58 58 59 59 59 59 60 60 59 59 60 59 60 60 60 60 60 61 61 61 62 63 64 65 66 66 65 66 67 68 70 70 70 70 71 70 70 71 71 71 71 71 71 71 71 71 71 70 70 69 69 66 64 63 60 58 59 62
52 52 52 53 54 55 56 57 58 59 60 61 60 60 61 60 61 60 60 60 60 60 60 60 60 61 61 61 62 63 64 64 64 64 65 66 67 68 69 70 70 70 71 71 71 71 72 72 72 71 71 72 71 71 71 71 65 64 63 61 60 59 64
51 50 50 52 53 54 55 57 58 58 59 58 58 59 60 59 58 57 57 57 57 58 58 59 59 60 61 62 62 61 62 62 62 63 63 64 65 65 67 68 69 70 71 70 70 71 71 71 72 72 72 72 72 72 72 72 68 61 59 58 58 61 66
49 50 51 52 53 54 55 55 56 57 56 57 58 58 58 57 56 56 56 56 55 55 56 57 58 59 60 60 62 62 62 62 61 61 62 63 63 64 65 67 68 70 72 70 70 71 71 72 72 73 73 73 72 71 71 72 65 58 58 57 57 61 66
49 50 51 52 52 52 52 53 54 55 56 56 56 57 57 56 55 54 55 56 54 55 55 56 57 58 59 60 61 61 62 62 61 61 61 62 63 64 65 66 67 69 71 71 70 70 71 70 69 69 69 70 70 70 71 71 66 58 57 57 56 63 68
49 50 51 52 53 53 54 56 54 53 54 55 56 56 55 55 55 56 54 54 54 54 55 56 57 58 59 59 60 60 61 61 62 61 62 62 62 63 64 67 69 69 70 70 70 69 70 70 68 67 68 69 70 70 70 69 67 64 57 55 56 59 68
50 50 51 51 53 55 52 52 52 52 53 54 55 55 54 53 53 54 55 53 53 54 55 56 57 58 58 58 58 59 60 61 61 60 61 63 62 62 63 64 66 67 67 67 67 67 68 69 68 67 67 68 67 68 69 69 67 66 57 55 55 58 64
49 50 52 55 54 52 50 50 50 51 51 52 54 55 53 53 53 54 53 52 53 54 55 56 56 58 58 58 58 59 58 59 60 61 61 63 62 61 61 62 64 64 65 65 65 64 65 66 66 64 64 65 67 66 66 68 66 68 61 55 54 55 59
50 51 51 50 50 52 50 49 49 49 50 50 51 52 54 54 54 53 53 52 53 54 56 56 56 57 57 57 57 58 59 60 59 60 61 63 63 60 61 61 61 62 63 63 63 63 63 64 64 64 63 63 65 65 65 65 65 64 66 58 53 53 55
51 50 50 50 50 50 51 49 49 50 50 51 52 51 53 54 54 55 53 52 54 55 56 55 56 57 56 58 56 57 58 58 59 60 60 63 63 62 60 60 61 61 61 62 62 62 62 63 63 62 61 60 61 61 64 64 64 63 63 62 56 54 52
50 49 50 50 50 52 49 48 49 50 51 51 52 52 52 53 54 55 53 53 56 55 55 56 57 57 55 55 55 57 56 57 58 60 60 61 62 62 61 61 61 59 60 60 60 61 61 62 62 61 61 59 58 58 60 62 61 60 62 61 59 55 53
49 50 50 50 50 50 49 49 50 50 51 51 52 53 54 53 53 54 53 55 55 54 55 57 57 58 56 55 56 55 56 56 58 58 58 59 60 63 61 60 61 60 59 60 60 60 61 62 61 59 58 57 57 58 58 59 59 60 60 61 60 59 55
50 50 49 49 50 51 49 50 50 50 51 51 52 53 53 53 54 54 55 55 55 54 55 58 58 57 56 55 55 55 56 56 58 57 57 58 58 59 61 60 59 59 60 61 60 60 60 59 58 58 57 57 56 57 58 58 59 59 59 59 58 57 57
49 49 50 50 50 50 49 50 50 51 52 52 52 53 54 54 54 54 54 55 55 55 56 58 58 55 55 55 55 56 58 57 59 58 56 57 58 58 58 58 58 58 59 59 59 58 58 58 58 57 56 55 56 56 57 57 58 58 56 56 55 55 56
50 50 49 49 49 50 49 50 51 51 52 52 52 53 53 53 53 53 54 54 55 56 56 57 56 55 55 55 56 56 59 58 57 57 57 57 58 58 58 59 57 58 57 58 60 59 56 56 58 57 56 56 57 57 56 57 57 57 51 53 48 52 55
49 49 48 48 50 49 51 52 51 52 52 52 52 53 53 53 53 53 53 53 54 54 56 56 55 54 54 56 56 58 58 58 57 56 58 57 57 58 59 60 54 56 59 60 59 54 48 51 55 56 56 56 56 58 57 56 57 49 44 44 43 44 44
48 47 47 49 49 50 50 50 53 53 53 52 54 53 53 52 52 52 52 52 53 53 53 54 54 54 54 55 56 58 58 57 57 58 58 57 57 57 59 58 57 49 50 53 55 52 48 41 43 47 49 58 56 57 52 50 46 43 43 43 43 43 43
47 47 48 49 48 49 51 51 52 52 53 52 53 52 52 52 52 52 51 51 52 52 52 52 53 53 53 55 55 56 57 56 56 56 56 56 56 58 58 57 56 56 51 48 50 49 47 47 46 45 46 48 51 55 57 52 46 43 42 42 42 42 42